Location: Campolattaro
(41.2833°N, 14.7333°E)
Time: 10:37:41
(UTC+00:00)

Cosmos 1602 Rocket - Pass Details

Date: 19 May 2025
Orbit: 597 x 627 km, 82.5° (Epoch: 23 June)

Event Time Altitude Azimuth Distance (km) Brightness Sun altitude
Rises 19:04:24 0° 346° (NNW) 2,873 7.8 -8.4°
Reaches altitude 10° 19:06:40 10° 342° (NNW) 1,960 7.1 -8.7°
Maximum altitude 19:10:51 50° 267° (W) 768 4.4 -9.4°
Drops below altitude 10° 19:14:59 10° 192° (SSW) 1,932 5.8 -10.0°
Sets 19:17:13 0° 187° (S) 2,827 6.6 -10.3°
